| time (UTC) | temp F | wind direction | speed knots | gust knots | rain 1hr in | rain 24hr in | rain mn in | humidity % | barometer mb |
| 20260504000055 | 64 | 259 | 5.2 | 11.3 | 0.00 | 0.00 | 0.00 | 67 | 1013.6 |
| 20260503234553 | 65 | 283 | 3.5 | 10.4 | 0.00 | 0.00 | 0.00 | 63 | 1013.5 |
| 20260503233055 | 65 | 360 | 4.3 | 12.2 | 0.00 | 0.00 | 0.00 | 64 | 1013.3 |
| 20260503231554 | 65 | 237 | 5.2 | 12.2 | 0.00 | 0.00 | 0.00 | 63 | 1013.5 |
| 20260503230056 | 67 | 245 | 3.5 | 12.2 | 0.00 | 0.00 | 0.00 | 61 | 1013.9 |
| 20260503224551 | 67 | 231 | 5.2 | 11.3 | 0.00 | 0.00 | 0.00 | 61 | 1013.8 |
| 20260503223057 | 67 | 296 | 6.1 | 11.3 | 0.00 | 0.00 | 0.00 | 60 | 1013.8 |
| 20260503221555 | 68 | 256 | 5.2 | 10.4 | 0.00 | 0.00 | 0.00 | 58 | 1013.9 |
| 20260503214555 | 68 | 360 | 6.1 | 10.4 | 0.00 | 0.00 | 0.00 | 58 | 1014.1 |
| 20260503213123 | 68 | 259 | 4.3 | 11.3 | 0.00 | 0.00 | 0.00 | 58 | 1014.1 |
| 20260503211617 | 67 | 290 | 4.3 | 11.3 | 0.00 | 0.00 | 0.00 | 59 | 1014.1 |
| 20260503210052 | 68 | 229 | 4.3 | 15.6 | 0.00 | 0.00 | 0.00 | 64 | 1014.3 |
| 20260503204606 | 67 | 254 | 6.1 | 15.6 | 0.00 | 0.00 | 0.00 | 66 | 1014.4 |
| 20260503203050 | 66 | 242 | 6.1 | 13.0 | 0.00 | 0.00 | 0.00 | 66 | 1014.5 |
| 20260503201552 | 66 | 360 | 6.1 | 11.3 | 0.00 | 0.00 | 0.00 | 68 | 1014.8 |
| 20260503200052 | 65 | 292 | 5.2 | 13.0 | 0.00 | 0.00 | 0.00 | 68 | 1014.9 |
| 20260503194551 | 66 | 250 | 6.1 | 11.3 | 0.00 | 0.00 | 0.00 | 67 | 1014.8 |
| 20260503193056 | 66 | 257 | 6.1 | 12.2 | 0.00 | 0.00 | 0.00 | 67 | 1015.1 |
| 20260503191602 | 66 | 229 | 7.0 | 13.0 | 0.00 | 0.00 | 0.00 | 66 | 1015.0 |
| 20260503190056 | 66 | 360 | 4.3 | 12.2 | 0.00 | 0.00 | 0.00 | 67 | 1015.1 |
| 20260503184607 | 64 | 270 | 7.0 | 12.2 | 0.00 | 0.00 | 0.00 | 70 | 1015.1 |
| 20260503183103 | 64 | 298 | 7.0 | 12.2 | 0.00 | 0.00 | 0.00 | 70 | 1015.1 |
| 20260503181552 | 65 | 257 | 4.3 | 10.4 | 0.00 | 0.00 | 0.00 | 70 | 1015.1 |
| 20260503180053 | 64 | 248 | 6.1 | 13.0 | 0.00 | 0.00 | 0.00 | 72 | 1015.2 |
| 20260503174609 | 65 | 244 | 3.5 | 10.4 | 0.00 | 0.00 | 0.00 | 73 | 1015.2 |
| 20260503173114 | 65 | 246 | 5.2 | 10.4 | 0.00 | 0.00 | 0.00 | 74 | 1015.1 |
| 20260503171550 | 65 | 288 | 5.2 | 11.3 | 0.00 | 0.00 | 0.00 | 75 | 1015.1 |
| 20260503100105 | 61 | 252 | 1.7 | 7.0 | 0.00 | 0.00 | 0.00 | 81 | 1012.9 |
| 20260503081558 | 61 | 196 | 0.9 | 3.5 | 0.00 | 0.00 | 0.00 | 83 | 1013.7 |
| 20260503071610 | 61 | 209 | 4.3 | 7.0 | 0.00 | 0.00 | 0.00 | 84 | 1014.1 |
| 20260503070112 | 61 | 142 | 1.7 | 3.5 | 0.00 | 0.00 | 0.00 | 84 | 1014.1 |
| 20260503060114 | 61 | 246 | 2.6 | 4.3 | 0.00 | 0.00 | 0.00 | 84 | 1013.8 |
| 20260503054600 | 61 | 259 | 2.6 | 6.1 | 0.00 | 0.00 | 0.00 | 84 | 1013.8 |
| 20260503053056 | 61 | 239 | 1.7 | 3.5 | 0.00 | 0.00 | 0.00 | 84 | 1013.7 |
| 20260503051559 | 61 | 240 | 1.7 | 4.3 | 0.00 | 0.00 | 0.00 | 84 | 1013.6 |
| 20260503044554 | 61 | 0 | 0.0 | 1.7 | 0.00 | 0.00 | 0.00 | 84 | 1013.2 |
| 20260503043051 | 61 | 0 | 0.0 | 1.7 | 0.00 | 0.00 | 0.00 | 84 | 1012.9 |
| 20260503041553 | 61 | 242 | 0.0 | 0.9 | 0.00 | 0.00 | 0.00 | 83 | 1012.7 |
| 20260503040057 | 61 | 0 | 0.0 | 1.7 | 0.00 | 0.00 | 0.00 | 83 | 1012.4 |
| 20260503034554 | 61 | 241 | 0.0 | 2.6 | 0.00 | 0.00 | 0.00 | 83 | 1012.3 |
| 20260503033059 | 61 | 240 | 1.7 | 3.5 | 0.00 | 0.00 | 0.00 | 83 | 1012.5 |
| 20260503031550 | 61 | 229 | 0.9 | 2.6 | 0.00 | 0.00 | 0.00 | 83 | 1012.3 |
| 20260503030050 | 61 | 230 | 0.9 | 3.5 | 0.00 | 0.00 | 0.00 | 82 | 1012.2 |
| 20260503024553 | 61 | 235 | 0.9 | 3.5 | 0.00 | 0.00 | 0.00 | 82 | 1012.0 |
| 20260503023051 | 61 | 0 | 1.7 | 5.2 | 0.00 | 0.00 | 0.00 | 82 | 1012.0 |
| 20260503021552 | 61 | 0 | 2.6 | 6.1 | 0.00 | 0.00 | 0.00 | 82 | 1011.8 |
| 20260503020049 | 62 | 251 | 2.6 | 6.1 | 0.00 | 0.00 | 0.00 | 82 | 1011.8 |
| 20260503014602 | 62 | 242 | 2.6 | 6.1 | 0.00 | 0.00 | 0.00 | 82 | 1011.8 |
| 20260503013051 | 62 | 244 | 2.6 | 6.1 | 0.00 | 0.00 | 0.00 | 81 | 1011.8 |
| 20260503011617 | 62 | 257 | 1.7 | 5.2 | 0.00 | 0.00 | 0.00 | 81 | 1011.6 |
| 20260503010053 | 62 | 246 | 1.7 | 7.0 | 0.00 | 0.00 | 0.00 | 81 | 1011.6 |
| 20260503004611 | 63 | 253 | 2.6 | 7.0 | 0.00 | 0.00 | 0.00 | 81 | 1011.6 |
| 20260503003054 | 63 | 266 | 3.5 | 8.7 | 0.00 | 0.00 | 0.00 | 81 | 1011.7 |
| 20260503001552 | 63 | 283 | 3.5 | 7.8 | 0.00 | 0.00 | 0.00 | 81 | 1011.8 |